Find Jilin-1 GaoFen 07B 02 xing

NORAD ID: 68694 Int'l Des: 2026-080 Owner: CGSTL Country: CN Constellation: jilin-1 operational
LEOCIRCULARRETROGRADESSO

Live Position

Loading 3D Globe...

About Jilin-1 GaoFen 07B 02 xing

Description loading...

Upcoming Passes

Passes for default location (London). Set your location on the main map for personalized predictions.

Altitude History

Loading altitude history...

Two-Line Element Set

1 68694U 26080D 26105.07430977 .00001013 00000-0 67430-4 0 9999
2 68694 97.6682 180.7187 0014244 278.7346 81.2269 15.09349528 124
Epoch: Apr 15, 2026 • Age: 24 hours

Current Status

Altitude 540.7 km
Velocity 7.59 km/s
Sub-Earth Point -12.54°S, 44.72°W
Launch Date Apr 14, 2026
Age 2 days
Type other

Technical Details

Classification Payload
Mass 50.00 kg
Dry Mass 50.00 kg
Total Mass 50.00 kg
Length 1.50 m
Diameter 1.00 m
Span 1.50 m
Shape Box
Manufacturer CGSTL
Bus Type JL-1GF07
Phase Status In Orbit
Owner/State CGSTL/CN

Most Searched